FW1214 Weather Reports


Display with metric or nautical units.
time (UTC)temp
F
wind
direction
speed
MPH
gust
MPH
rain 1hr
in
rain 24hr
in
rain mn
in
humidity
%
barometer
mb
20260510230025 69 360 0.0 0.0 0.00 0.00 0.00 36 1022.3
20260510224516 69 114 0.0 1.0 0.00 0.00 0.00 37 1022.2
20260510223010 69 8 0.0 0.0 0.00 0.00 0.00 36 1022.4
20260510221511 70 11 0.0 0.0 0.00 0.00 0.00 36 1022.2
20260510220008 69 12 0.0 17.0 0.00 0.00 0.00 38 1022.4
20260510214507 70 72 0.0 0.0 0.00 0.00 0.00 36 1022.5
20260510213005 71 15 0.0 0.0 0.00 0.00 0.00 37 1022.6
20260510211506 70 31 0.0 3.0 0.00 0.00 0.00 38 1022.9
20260510210005 70 48 0.0 0.0 0.00 0.00 0.00 36 1022.8
20260510204502 69 52 0.0 1.0 0.00 0.00 0.00 37 1022.9
20260510203101 70 4 0.0 0.0 0.00 0.00 0.00 38 1022.8
20260510201601 69 67 0.0 0.0 0.00 0.00 0.00 41 1022.9
20260510200118 69 71 0.0 0.0 0.00 0.00 0.00 38 1023.0
20260510194609 67 15 0.0 0.0 0.00 0.00 0.00 42 1022.8
20260510193113 66 55 0.0 0.0 0.00 0.00 0.00 42 1022.9
20260510191557 66 50 0.0 0.0 0.00 0.00 0.00 39 1022.9
20260510184602 69 66 0.0 1.0 0.00 0.00 0.00 41 1023.3
20260510183054 68 19 0.0 0.0 0.00 0.00 0.00 41 1023.3
20260510181550 66 31 0.0 3.0 0.00 0.00 0.00 45 1023.5
20260510180049 65 52 0.0 2.0 0.00 0.00 0.00 42 1023.6
20260510174554 64 36 0.0 8.0 0.00 0.00 0.00 46 1023.7
20260510173044 64 349 0.0 2.0 0.00 0.00 0.00 45 1023.8
20260510171541 63 45 0.0 6.0 0.00 0.00 0.00 49 1023.9
20260510170039 63 67 0.0 1.0 0.00 0.00 0.00 51 1023.9
20260510164538 61 74 0.0 1.0 0.00 0.00 0.00 54 1023.8
20260510163034 60 67 0.0 2.0 0.00 0.00 0.00 54 1023.9
20260510161534 60 23 0.0 6.0 0.00 0.00 0.00 56 1023.7
20260510160035 58 56 0.0 2.0 0.00 0.00 0.00 55 1023.3
20260510154529 56 74 0.0 0.0 0.00 0.00 0.00 62 1023.3
20260510153023 55 61 0.0 0.0 0.00 0.00 0.00 64 1023.3
20260510151526 54 17 0.0 0.0 0.00 0.00 0.00 68 1023.3
20260510150020 53 46 0.0 0.0 0.00 0.00 0.00 73 1023.2
20260510144522 52 29 0.0 0.0 0.00 0.00 0.00 77 1023.1
20260510143016 0 0.0 0.0 0.00 0.00 0.00 1023.1
20260510141511 0 0.0 0.0 0.00 0.00 0.00 1022.8
20260510140007 0 0.0 0.0 0.00 0.00 0.00 1022.3
20260510134503 0 0.0 0.0 0.00 0.00 0.00 1021.9
20260510133101 0 0.0 0.0 0.00 0.00 0.00 1022.1
20260510131600 0 0.0 0.0 0.00 0.00 0.00 1021.8
20260510130050 0 0.0 0.0 0.00 0.00 0.00 1021.5
20260510124548 0 0.0 0.0 0.00 0.00 0.00 1021.2
20260510123043 0 0.0 0.0 0.00 0.00 0.00 1021.0
20260510121536 0 0.0 0.0 0.00 0.00 0.00 1020.7
20260510120031 0 0.0 0.0 0.00 0.00 0.00 1020.6
20260510114536 0 10 0.0 0.0 0.00 0.00 0.00 1020.1
20260510113038 49 27 0.0 0.0 0.00 0.00 0.00 83 1019.6
20260510111530 49 27 0.0 0.0 0.00 0.00 0.00 84 1019.5
20260510110033 49 345 0.0 1.0 0.00 0.00 0.00 84 1019.6
20260510104521 50 25 0.0 0.0 0.00 0.00 0.00 83 1019.3
20260510103018 50 15 0.0 0.0 0.00 0.00 0.00 82 1019.5
20260510101515 51 45 0.0 0.0 0.00 0.00 0.00 81 1018.5
20260510100015 51 51 0.0 0.0 0.00 0.00 0.00 81 1018.2
20260510094514 51 12 0.0 1.0 0.00 0.00 0.00 80 1017.8
20260510093009 53 331 0.0 2.0 0.00 0.00 0.00 75 1017.4
20260510091508 54 50 0.0 6.0 0.00 0.00 0.00 68 1017.3
20260510090008 54 16 0.0 6.0 0.00 0.00 0.00 69 1017.4
20260510084507 54 360 0.0 2.0 0.00 0.00 0.00 71 1017.6
20260510083013 54 67 0.0 2.0 0.00 0.00 0.00 71 1017.7
20260510081504 54 11 0.0 2.0 0.00 0.00 0.00 72 1017.6
20260510080004 55 338 0.0 3.0 0.00 0.00 0.00 71 1017.9
20260510074502 56 7 0.0 2.0 0.00 0.00 0.00 72 1018.1
20260510073100 55 11 0.0 2.0 0.00 0.00 0.00 75 1018.5
20260510071603 55 2 0.0 0.0 0.00 0.00 0.00 78 1018.3
20260510070108 54 19 0.0 0.0 0.00 0.00 0.00 79 1017.8
20260510064559 55 10 0.0 2.0 0.00 0.00 0.00 77 1017.1
20260510063048 55 41 0.0 1.0 0.00 0.00 0.00 76 1016.5
20260510061546 55 33 0.0 3.0 0.00 0.00 0.00 76 1016.3
20260510060044 55 22 0.0 3.0 0.00 0.00 0.00 77 1016.0
20260510054551 55 18 0.0 0.0 0.00 0.00 0.00 77 1015.8
20260510053040 55 25 0.0 0.0 0.00 0.00 0.00 78 1015.5
20260510051538 55 24 0.0 0.0 0.00 0.00 0.00 78 1015.2
20260510050040 55 38 0.0 0.0 0.00 0.00 0.00 77 1014.9
20260510044533 56 57 0.0 1.0 0.00 0.00 0.00 76 1014.5
20260510043031 56 29 0.0 0.0 0.00 0.00 0.00 76 1014.3
20260510041539 57 50 0.0 0.0 0.00 0.00 0.00 76 1013.7
20260510040028 57 36 0.0 0.0 0.00 0.00 0.00 75 1013.6
20260510034525 57 55 0.0 0.0 0.00 0.00 0.00 76 1013.1
20260510033022 58 40 0.0 1.0 0.00 0.00 0.00 75 1012.7
20260510031528 59 8 0.0 4.0 0.00 0.00 0.00 75 1012.5
20260510030019 59 53 0.0 2.0 0.00 0.00 0.00 74 1011.8
20260510024518 59 77 0.0 1.0 0.00 0.00 0.00 76 1011.4
20260510023013 60 50 0.0 0.0 0.00 0.00 0.00 76 1011.1
20260510021513 61 36 0.0 0.0 0.00 0.00 0.00 76 1010.7
20260510020013 62 50 0.0 5.0 0.00 0.00 0.00 74 1010.1
20260510014513 62 357 0.0 3.0 0.00 0.00 0.00 75 1009.8
20260510013011 63 38 0.0 6.0 0.00 0.00 0.00 74 1009.7
20260510011511 65 66 0.0 6.0 0.00 0.00 0.00 74 1008.9
20260510010010 66 45 1.0 10.0 0.00 0.00 0.00 73 1008.4
20260510004508 66 76 2.0 10.0 0.00 0.00 0.00 73 1008.0
20260510003007 66 85 1.0 7.0 0.00 0.00 0.00 76 1007.6
20260510001518 65 69 0.0 11.0 0.00 0.00 0.00 83 1007.2
20260510000006 61 50 1.0 15.0 0.00 0.00 0.00 96 1007.2
20260509234506 58 7 2.0 11.0 0.00 0.00 0.00 95 1007.8
20260509233001 58 47 7.0 25.0 0.00 0.00 0.00 91 1006.8
20260509231602 65 349 0.0 0.0 0.00 0.00 0.00 75 1007.1